sat.trackr.live / text

‹ back to catalog

STARLINK-3658

NORAD 52107 · 2022-029V

PAYLOAD ACTIVE UNKNOWN

§ Identity

Operator
Country
US
Launch date
2022-03-19
Launch site
AFETR
Launch vehicle
Mass (kg)
RCS (m²)

Purposes: comms

External: N2YO · Heavens-Above · Gunter

§ Orbital elements

Epoch: 2026-09-19T17:45:00.904320Z

Period
93.85 min
Inclination
53.1578°
Eccentricity
0.0000933
Mean motion
15.34374707 rev/d
Perigee alt
462.1 km
Apogee alt
463.4 km
Semi-major
6,840.9 km
B*
4.6165e-5
RAAN
272.9266°
Arg perigee
101.8991°
Mean anomaly
258.2116°
Rev number
25,028

§ Raw data

STARLINK-36581 52107U 22029V   26262.73959380  .00001183  00000+0  46165-4 0  99902 52107  53.1578 272.9266 0000933 101.8991 258.2116 15.34374707250287

JSON: /api/v1/satellites/52107 · /tle

For live sub-satellite position, see the globe view (requires WebGL).

§ Visibility from observer

Set your observer location to see the next 7 days of passes ≥ 10°. The values pass through the URL so the page stays shareable.

No JS? Fill the form by hand. The geolocation button needs JavaScript.